Temperature
17 17 17 17 17 17 17 16 16 16 15 15 15 15 15 15 15 15 15 15 14 14 14 14 14 14 13 13 13 13 13 12 12 12 12 12 12 12
16 16 16 16 16 16 16 16 16 16 16 15 15 15 15 15 14 14 14 14 14 14 14 14 13 13 13 13 12 12 12 12 12 12 12 11 11 11
16 16 16 16 16 16 16 16 16 16 15 15 15 15 14 14 14 14 14 14 14 13 13 13 13 13 12 12 12 12 12 12 11 11 11 11 11 11
16 16 16 16 16 16 16 16 15 15 15 15 14 14 14 14 14 13 13 13 13 13 13 12 12 12 12 12 12 11 11 11 11 11 10 10 10 10
16 16 15 15 15 15 15 15 15 15 15 15 14 14 13 13 13 13 13 13 12 12 12 12 11 11 11 11 11 11 11 10 10 10 10 10 10 9
15 15 15 15 15 15 15 15 15 14 14 14 14 13 13 13 13 12 12 12 12 11 11 11 11 11 11 11 10 10 10 10 10 9 9 9 9 9
15 15 15 14 14 14 14 14 14 14 14 14 13 13 13 12 12 12 12 11 11 11 11 11 10 10 10 10 10 10 10 9 9 9 9 9 9 9
15 14 14 14 14 14 14 14 13 13 13 13 13 12 12 12 12 12 11 11 11 11 11 10 10 10 10 10 10 9 9 9 9 9 8 8 8 8
14 14 14 14 14 14 14 13 13 13 13 12 12 12 12 12 12 11 11 11 11 11 10 10 10 10 10 10 9 9 9 9 8 8 8 8 8 8
13 13 13 13 13 13 13 13 13 12 12 12 12 12 12 12 11 11 11 11 11 10 10 10 10 10 9 9 9 9 9 8 8 8 8 8 8 7
13 13 13 13 13 13 13 12 12 12 12 12 11 11 11 11 11 11 11 10 10 10 10 10 9 9 9 9 9 8 8 8 8 8 8 7 7 7
13 13 13 12 12 12 12 12 12 12 11 11 11 11 11 11 10 10 10 10 10 10 10 9 9 9 9 9 8 8 8 8 8 8 7 7 7 7
12 12 12 12 12 12 11 11 11 11 11 11 10 10 10 10 10 10 10 10 10 10 9 9 9 9 9 8 8 8 8 8 8 7 7 7 7 7
12 12 12 11 11 11 11 11 11 11 10 10 10 10 10 10 10 10 10 9 9 9 9 9 9 9 8 8 8 8 8 8 8 7 7 7 7 7
11 11 11 11 11 10 10 10 10 10 10 10 10 10 9 9 9 9 9 9 9 9 9 9 9 9 8 8 8 8 8 8 8 7 7 7 7 7
11 11 10 10 10 10 10 10 10 10 10 9 9 9 9 9 9 9 9 9 8 9 9 8 8 8 8 8 8 8 8 8 8 8 7 7 7 7
10 10 10 10 10 10 10 9 9 9 9 9 9 9 9 9 9 9 9 8 8 8 8 8 8 8 8 8 8 8 8 8 8 8 7 7 7 7
10 10 10 10 10 9 9 9 9 9 9 9 9 9 9 9 9 9 8 8 8 8 8 8 8 8 8 8 8 8 8 8 8 8 8 7 7 7
10 10 9 9 9 9 9 9 9 9 9 9 9 9 8 8 8 8 8 8 8 8 8 8 8 8 8 8 8 8 8 8 8 8 8 7 7 7
9 9 9 9 9 9 9 9 8 8 8 8 8 8 8 8 8 8 8 8 8 8 8 8 8 8 8 7 8 8 8 7 8 7 7 7 7 7
9 9 9 9 8 8 8 8 8 8 8 8 8 8 8 8 8 8 8 8 7 7 7 8 7 7 7 7 7 7 7 7 7 7 7 7 7 7
9 8 8 8 8 8 8 8 8 8 8 8 8 8 7 7 7 7 7 7 7 7 7 7 7 7 7 7 7 7 7 7 7 7 7 7 7 7
8 8 8 8 8 8 8 8 8 7 7 7 7 7 7 7 7 7 7 7 7 7 7 7 7 7 7 7 6 6 6 7 7 7 7 7 7 7
Wind_Speed
2 2 2 2 1 2 3 4 4 3 3 2 1 1 3 4 5 6 5 6 7 7 7 7 7 7 7 6 6 6 5 5 4 3 2 1 1 1
1 1 1 1 1 1 2 2 3 4 3 2 1 1 3 4 5 6 6 6 7 8 8 8 8 8 7 7 6 6 5 4 4 3 3 3 3 2
1 1 1 0 0 0 1 1 1 3 3 1 0 1 2 3 4 5 5 5 6 7 8 8 8 8 8 7 6 6 5 5 5 4 4 4 4 3
1 1 0 0 0 0 1 1 2 2 4 3 1 1 1 3 3 3 4 4 6 7 8 8 8 8 8 7 6 6 6 6 5 5 5 5 5 5
2 1 0 1 0 0 1 1 1 2 2 3 2 1 1 2 2 2 2 2 4 6 7 7 7 6 6 6 6 5 5 5 5 5 5 5 5 5
1 1 1 1 1 0 1 1 2 2 3 3 2 2 1 1 2 2 2 1 1 3 5 5 6 6 6 5 5 5 4 4 4 5 5 5 6 6
2 2 2 3 3 2 2 2 3 3 3 3 2 2 1 2 2 2 3 2 1 2 2 2 3 3 3 4 5 5 5 5 5 5 5 5 6 6
3 2 3 4 5 5 5 4 4 4 3 2 2 2 3 2 2 3 3 3 2 2 3 2 3 2 3 5 6 5 5 6 6 5 5 5 5 5
2 2 3 3 4 3 5 6 5 4 3 4 3 3 3 3 4 4 4 4 3 3 4 2 2 3 4 6 8 8 8 8 7 6 6 5 5 5
2 3 3 2 2 3 4 4 4 3 2 2 2 3 3 3 4 4 4 2 1 1 4 2 2 3 3 5 8 8 8 8 8 7 7 7 6 6
2 2 3 3 3 5 5 4 3 3 3 3 2 2 2 4 4 3 3 3 1 1 1 2 2 1 1 2 7 9 9 9 9 8 8 8 8 7
2 3 3 3 4 5 4 3 2 1 2 3 3 3 2 2 3 3 4 3 2 2 2 3 2 2 1 2 3 6 7 9 10 10 9 9 9 7
2 1 1 2 4 4 3 2 2 1 1 1 1 2 1 1 0 2 3 3 3 2 3 3 2 2 2 1 2 3 6 6 7 8 10 11 11 9
2 1 1 2 3 3 2 1 2 2 1 1 1 1 1 1 1 1 2 3 3 3 4 5 3 4 3 2 2 2 3 6 6 6 8 9 11 12
2 2 2 2 2 2 2 2 1 1 1 1 0 2 2 2 1 1 1 0 1 2 4 4 3 3 4 3 3 2 2 3 5 5 5 6 7 7
2 2 3 4 3 2 2 2 1 0 1 1 1 2 1 1 1 1 0 1 1 3 2 4 5 4 3 3 4 3 3 3 3 4 4 5 7 10
2 3 3 2 2 2 2 2 2 2 1 1 1 1 1 1 1 1 0 1 0 1 3 2 1 4 4 4 3 4 4 4 4 4 4 4 6 8
4 2 1 1 0 1 1 2 2 2 1 1 1 0 1 1 1 1 0 1 1 1 2 2 1 1 2 3 6 5 5 5 5 4 4 4 6 6
3 1 1 0 1 1 1 1 1 2 1 1 1 1 1 1 1 1 1 1 1 2 2 2 1 1 1 4 5 7 6 5 3 3 4 5 6 7
1 1 1 1 1 1 1 1 1 1 1 1 1 1 1 1 1 1 2 2 2 2 2 2 2 3 4 4 4 4 7 6 4 4 4 4 5 6
1 1 1 1 1 1 1 1 1 1 1 1 1 2 2 1 2 2 2 3 2 2 3 4 5 5 2 0 2 4 5 8 9 6 5 3 3 3
1 1 0 0 0 0 0 1 1 1 1 1 1 2 2 2 2 2 2 2 2 3 4 4 3 1 1 2 4 5 5 5 7 10 11 10 5 5
1 1 0 0 0 0 0 1 0 1 1 1 2 2 2 2 3 2 2 2 2 3 3 3 2 2 2 3 4 4 5 5 3 3 5 10 13 16
Wind_Direction
215 205 203 231 219 206 185 175 172 203 235 226 189 146 132 129 139 139 144 147 150 150 147 142 138 132 125 120 113 109 103 94 87 78 74 100 106 102
193 168 200 245 243 219 190 185 182 183 206 214 201 162 136 127 126 128 131 134 142 145 143 142 139 134 129 123 117 110 105 99 94 91 87 96 97 97
174 156 188 155 157 228 142 149 157 151 169 206 165 129 131 134 122 118 120 122 128 140 140 138 137 132 127 123 118 113 106 100 95 91 90 92 97 102
162 141 182 138 107 114 140 153 163 157 160 174 183 162 153 155 144 132 122 123 123 129 136 138 137 134 131 126 118 110 105 102 101 100 98 100 102 99
135 139 157 114 116 95 121 132 148 138 145 156 174 160 140 147 122 123 123 102 124 130 136 141 143 141 139 132 126 120 120 118 117 117 113 111 107 101
97 110 101 113 141 136 125 112 102 98 109 132 144 143 149 145 136 149 137 137 150 131 136 143 146 150 152 148 149 147 144 138 132 127 122 119 118 112
72 67 73 90 83 91 108 116 116 111 112 128 144 139 158 170 190 188 172 158 190 173 153 159 155 164 177 180 177 174 169 165 162 155 147 142 134 126
89 70 62 66 66 70 80 100 126 134 143 150 170 181 198 202 188 173 162 157 208 203 169 200 183 209 213 208 203 197 195 194 188 178 168 157 147 139
108 100 83 61 66 70 65 67 71 90 134 158 168 195 193 196 174 176 185 185 199 188 162 194 193 220 227 220 212 212 213 212 205 197 187 178 172 167
87 104 102 76 61 88 83 71 58 46 48 116 174 206 203 195 187 187 188 175 133 149 147 172 198 219 228 222 218 221 222 220 218 212 205 204 199 194
56 77 102 95 83 99 95 87 68 28 47 79 102 137 145 146 147 121 126 138 178 227 175 165 186 197 229 230 228 223 224 225 225 222 219 219 215 210
59 56 76 98 97 100 104 105 98 7 18 30 36 41 69 111 137 148 154 152 163 224 208 163 167 151 220 255 231 229 231 235 235 233 230 226 220 214
115 76 40 96 105 102 111 128 176 162 77 54 29 15 19 27 84 156 165 162 169 223 203 159 162 166 178 230 259 225 219 226 232 238 238 235 228 216
148 162 161 109 101 95 97 91 93 88 83 68 53 358 324 298 276 237 208 201 199 208 197 170 169 177 168 182 245 248 227 229 224 231 240 243 239 232
135 135 110 83 65 40 18 25 47 64 78 93 250 268 266 268 299 333 348 292 290 257 212 198 174 173 173 190 208 214 231 241 222 222 229 230 232 227
79 77 70 59 43 13 5 2 5 29 157 209 257 273 288 311 314 293 319 7 4 329 295 230 204 180 195 209 199 215 213 226 227 219 221 233 242 237
89 61 48 36 19 4 1 358 358 13 13 339 331 335 323 315 301 292 185 113 131 294 310 316 268 220 213 203 220 233 229 235 232 217 212 238 243 240
104 95 80 58 323 299 307 325 341 345 335 324 324 301 285 277 291 318 313 195 223 260 269 270 286 355 346 283 224 228 235 236 240 224 207 222 252 252
104 120 142 244 280 279 270 274 288 297 318 360 354 316 286 274 273 294 291 266 262 262 264 262 223 181 244 279 281 228 218 237 231 229 219 216 236 248
105 149 234 261 262 266 273 288 293 315 332 324 321 324 319 300 297 296 273 266 264 266 280 282 243 212 212 232 256 267 228 217 220 230 236 234 247 265
244 250 245 269 280 276 294 317 331 333 343 342 333 326 319 316 308 300 283 273 266 266 265 264 259 249 228 194 287 284 269 239 227 221 218 221 248 265
257 251 276 334 306 268 47 51 30 10 350 330 309 303 303 302 294 292 283 278 270 261 265 275 292 302 210 234 259 270 279 283 267 253 236 222 203 217
202 170 7 15 4 50 117 115 90 342 337 333 323 313 307 303 294 281 272 267 272 282 286 294 303 285 254 244 258 270 277 280 282 289 275 260 248 249
Height
1543 1543 1543 1543 1543 1544 1544 1544 1545 1544 1544 1545 1545 1545 1545 1545 1545 1545 1545 1545 1545 1545 1545 1544 1544 1544 1544 1544 1544 1544 1544 1544 1544 1544 1543 1543 1543 1542
1540 1540 1540 1540 1540 1540 1541 1541 1541 1542 1541 1542 1542 1543 1543 1542 1542 1542 1542 1542 1542 1543 1542 1542 1542 1542 1542 1542 1542 1542 1541 1541 1541 1541 1541 1540 1540 1540
1537 1537 1537 1537 1537 1537 1538 1538 1539 1539 1538 1539 1540 1540 1540 1540 1540 1540 1540 1540 1540 1540 1540 1540 1540 1540 1540 1540 1540 1539 1539 1539 1539 1539 1538 1538 1537 1537
1534 1534 1534 1534 1535 1535 1535 1535 1536 1536 1536 1536 1536 1537 1537 1538 1538 1537 1538 1538 1538 1538 1538 1538 1538 1538 1538 1538 1538 1538 1538 1537 1537 1537 1536 1536 1535 1535
1532 1532 1532 1532 1532 1533 1533 1533 1533 1533 1534 1533 1534 1534 1534 1535 1535 1535 1535 1536 1536 1536 1536 1536 1537 1537 1537 1536 1536 1536 1536 1536 1536 1535 1535 1534 1534 1534
1530 1530 1530 1531 1531 1531 1531 1531 1531 1531 1531 1531 1531 1532 1532 1532 1533 1533 1533 1534 1534 1534 1535 1535 1535 1535 1535 1535 1535 1535 1534 1534 1534 1534 1533 1533 1533 1532
1529 1529 1529 1529 1529 1529 1529 1529 1529 1529 1529 1529 1529 1529 1529 1530 1530 1530 1531 1531 1532 1533 1533 1533 1533 1533 1534 1533 1533 1533 1533 1532 1532 1532 1532 1531 1531 1531
1528 1528 1527 1527 1527 1527 1527 1527 1527 1527 1527 1527 1527 1527 1527 1527 1527 1528 1528 1528 1529 1531 1531 1531 1532 1532 1532 1532 1532 1532 1531 1531 1531 1531 1530 1530 1530 1529
1528 1527 1527 1526 1526 1526 1526 1526 1526 1526 1526 1526 1525 1525 1525 1525 1525 1525 1526 1526 1527 1528 1528 1529 1529 1529 1530 1530 1530 1530 1530 1530 1530 1529 1529 1529 1529 1528
1527 1527 1526 1526 1525 1525 1524 1524 1524 1524 1524 1524 1524 1524 1523 1523 1523 1523 1524 1525 1525 1526 1526 1526 1527 1527 1527 1528 1528 1528 1528 1528 1528 1528 1528 1528 1527 1527
1527 1527 1526 1525 1525 1524 1524 1523 1523 1523 1523 1523 1523 1522 1522 1522 1522 1522 1522 1522 1522 1523 1524 1524 1524 1525 1525 1525 1525 1525 1525 1526 1526 1526 1526 1526 1526 1526
1526 1526 1526 1525 1525 1525 1524 1523 1523 1522 1522 1522 1522 1521 1521 1521 1521 1521 1520 1520 1520 1521 1521 1522 1522 1522 1523 1523 1523 1523 1523 1524 1524 1524 1524 1524 1524 1524
1525 1525 1525 1525 1524 1524 1524 1523 1522 1522 1522 1522 1521 1521 1520 1520 1520 1520 1520 1520 1520 1519 1520 1520 1520 1520 1520 1521 1521 1521 1521 1522 1522 1522 1522 1522 1522 1522
1525 1524 1524 1524 1524 1523 1523 1523 1522 1522 1521 1521 1521 1521 1520 1520 1519 1519 1519 1519 1519 1519 1518 1518 1518 1518 1518 1518 1519 1519 1519 1519 1519 1520 1520 1520 1520 1520
1524 1524 1524 1523 1523 1523 1523 1522 1522 1521 1521 1521 1520 1520 1520 1520 1519 1518 1518 1518 1517 1517 1517 1517 1516 1516 1516 1516 1516 1516 1516 1517 1517 1517 1517 1517 1517 1516
1523 1523 1523 1523 1522 1522 1522 1522 1521 1521 1520 1520 1520 1519 1519 1519 1518 1517 1516 1516 1516 1515 1515 1515 1515 1514 1514 1514 1514 1514 1514 1514 1514 1514 1514 1514 1513 1513
1521 1521 1521 1521 1521 1521 1521 1521 1520 1520 1520 1519 1519 1518 1518 1517 1517 1516 1515 1515 1514 1514 1513 1513 1513 1512 1512 1512 1512 1511 1511 1511 1511 1511 1510 1510 1509 1509
1521 1520 1520 1520 1520 1520 1520 1520 1520 1519 1519 1518 1517 1517 1516 1516 1515 1514 1514 1513 1512 1512 1511 1511 1511 1510 1510 1509 1510 1508 1508 1507 1507 1507 1507 1506 1505 1505
1520 1520 1520 1520 1520 1520 1520 1519 1519 1519 1518 1518 1517 1516 1515 1514 1513 1513 1512 1511 1510 1510 1509 1509 1508 1508 1507 1506 1506 1506 1505 1504 1503 1503 1502 1502 1501 1501
1519 1519 1519 1519 1519 1519 1519 1518 1518 1517 1517 1516 1515 1514 1514 1513 1511 1510 1510 1509 1508 1507 1507 1506 1506 1505 1505 1504 1502 1502 1501 1500 1499 1498 1498 1497 1497 1496
1519 1519 1519 1518 1518 1518 1517 1517 1516 1516 1515 1514 1514 1513 1512 1511 1510 1509 1508 1507 1506 1505 1504 1504 1503 1503 1502 1501 1499 1497 1497 1496 1495 1494 1493 1492 1491 1491
1518 1518 1517 1517 1517 1516 1516 1515 1514 1514 1513 1512 1512 1511 1510 1509 1508 1507 1506 1505 1504 1503 1502 1501 1500 1499 1498 1496 1495 1493 1492 1491 1490 1489 1489 1488 1486 1485
1517 1517 1516 1516 1515 1514 1514 1513 1512 1511 1510 1510 1509 1508 1507 1506 1505 1504 1503 1502 1501 1500 1499 1498 1496 1495 1494 1492 1490 1488 1487 1486 1485 1484 1484 1483 1482 1481